WXM80 ListenWXM80 Stop

You find our weather info also at:

UK Metoffice

WeatherCloud

Weather Underground

Northeastern Weather Network

AWEKAS

Citizen Weather Observer Program (CWOP)

HAMweather, WeatherForYou, PWS Weather


Weather Underground History page Text

Daily Summary for October 9, 2017 Units:  Metric    English   Both
« Previous Day
Next Day »
Daily Weekly Monthly Yearly Custom
  High: Low: Average:
Temperature: 23.7 °C 22.3 °C 22.8 °C
Dew Point: 22.9 °C 21.4 °C 22.2 °C
Humidity: 97 % 93 % 96 %
Wind Speed: 12.7 km/h 0 km/h 3.4 km/h
Wind Gust: 32.2 km/h - -
Wind:- - SSW
Pressure: 1014.1 hPa 999.5 hPa -
Precipitation: 6.35 mm    
Historical Graphs
 
 
Tabular Data for October 9, 2017
Time Temperature Dew Point Pressure Wind Wind Speed Wind Gust Humidity Rainfall Rate (Hourly)
00:03 23.2 °C 22.4 °C 1013.8 hPa WSW 0.2 km/h 1.9 km/h 95 % 0 mm
00:08 23.2 °C 22.3 °C 1013.8 hPa Calm   1.9 km/h 95 % 0 mm
00:13 23.1 °C 22.3 °C 1013.8 hPa WSW 0.3 km/h 1.9 km/h 95 % 0 mm
00:18 23.1 °C 22.2 °C 1014.1 hPa SE 0.6 km/h 1.9 km/h 95 % 0 mm
00:23 23.1 °C 22.2 °C 1014.1 hPa SSW 1.4 km/h 5.6 km/h 95 % 0 mm
00:28 23.1 °C 22.2 °C 1014.1 hPa SSW 1.1 km/h 5.6 km/h 95 % 0 mm
00:33 23 °C 22.2 °C 1014.1 hPa SSW 0.2 km/h 3.7 km/h 95 % 0 mm
00:38 22.9 °C 22.1 °C 1014.1 hPa Calm   1.9 km/h 95 % 0 mm
00:43 22.9 °C 22.1 °C 1014.1 hPa WSW 0.3 km/h 3.2 km/h 95 % 0 mm
00:48 22.9 °C 22.1 °C 1014.1 hPa SW 0.2 km/h 1.9 km/h 95 % 0 mm
00:53 22.8 °C 22 °C 1014.1 hPa Calm   1.9 km/h 95 % 0 mm
00:58 22.8 °C 22 °C 1014.1 hPa Calm   1.9 km/h 95 % 0 mm
01:03 22.8 °C 21.9 °C 1013.8 hPa WSW 1.9 km/h 5.6 km/h 95 % 0 mm
01:08 22.8 °C 21.9 °C 1014.1 hPa WSW 2.9 km/h 5.6 km/h 95 % 0 mm
01:13 22.8 °C 22.2 °C 1013.8 hPa SSW 2.9 km/h 5.6 km/h 96 % 0 mm
01:18 22.8 °C 22.2 °C 1013.8 hPa South 0.6 km/h 1.9 km/h 96 % 0 mm
01:24 22.8 °C 22.2 °C 1013.8 hPa SW 1.9 km/h 3.7 km/h 96 % 0 mm
01:29 22.8 °C 22.2 °C 1013.8 hPa SW 0.2 km/h 1.9 km/h 96 % 0 mm
01:34 22.8 °C 22.2 °C 1013.8 hPa Calm     96 % 0 mm
01:44 22.8 °C 22.2 °C 1013.8 hPa Calm   1.9 km/h 96 % 0 mm
01:49 22.8 °C 22.2 °C 1013.8 hPa WSW 0.5 km/h 1.9 km/h 96 % 0 mm
01:54 22.8 °C 22.2 °C 1013.8 hPa WSW 0.2 km/h 1.9 km/h 96 % 0 mm
01:59 22.8 °C 22.2 °C 1013.8 hPa WSW 0.6 km/h 3.7 km/h 96 % 0 mm
02:09 22.8 °C 22.2 °C 1013.8 hPa Calm     96 % 0 mm
02:14 22.8 °C 22.2 °C 1013.8 hPa West 0.8 km/h 5.6 km/h 96 % 0 mm
02:19 22.8 °C 22.2 °C 1013.8 hPa SSE 0.6 km/h 3.7 km/h 96 % 0 mm
02:24 22.8 °C 22.2 °C 1013.8 hPa Calm   1.9 km/h 96 % 0 mm
02:29 22.8 °C 22.2 °C 1013.8 hPa Calm   3.7 km/h 96 % 0 mm
02:34 22.8 °C 22.1 °C 1013.4 hPa SSE 0.3 km/h 5.6 km/h 96 % 0 mm
02:39 22.8 °C 22.1 °C 1013.8 hPa Calm   3.7 km/h 96 % 0 mm
02:44 22.8 °C 22.1 °C 1013.8 hPa SSE 0.2 km/h 1.9 km/h 96 % 0 mm
02:50 22.7 °C 22.1 °C 1013.4 hPa SSE 0.2 km/h 1.9 km/h 96 % 0 mm
02:55 22.7 °C 22.1 °C 1011.4 hPa SSE 0.5 km/h 1.9 km/h 96 % 0 mm
03:00 22.7 °C 22.1 °C 1006.7 hPa Calm   1.9 km/h 96 % 0 mm
03:10 22.7 °C 22 °C 1010 hPa Calm     96 % 0 mm
03:15 22.6 °C 21.9 °C 1011.4 hPa SSE 0.3 km/h 1.9 km/h 96 % 0 mm
03:20 22.6 °C 21.9 °C 1011.1 hPa SE 0.3 km/h 3.7 km/h 96 % 0 mm
03:30 22.5 °C 21.8 °C 1011.4 hPa SSE 0.6 km/h 3.7 km/h 96 % 0 mm
03:35 22.5 °C 21.8 °C 1012.1 hPa South 1.3 km/h 5.6 km/h 96 % 0 mm
03:40 22.4 °C 21.8 °C 1011.1 hPa SSW 0.6 km/h 3.7 km/h 96 % 0 mm
03:45 22.4 °C 21.6 °C 1011.1 hPa SE 1 km/h 3.7 km/h 95 % 0 mm
03:50 22.4 °C 21.6 °C 1009.7 hPa SSW 0.8 km/h 1.9 km/h 95 % 0 mm
03:55 22.3 °C 21.7 °C 1010 hPa SSW 0.5 km/h 3.7 km/h 96 % 0 mm
03:56 22.3 °C 21.7 °C 1010 hPa SE 1.8 km/h 4.8 km/h 96 % 0 mm
04:01 22.3 °C 21.5 °C 1010.4 hPa SSW 4.5 km/h 5.6 km/h 95 % 0 mm
04:06 22.3 °C 21.4 °C 1012.1 hPa WSW 1.4 km/h 5.6 km/h 95 % 0 mm
04:11 22.3 °C 21.4 °C 1011.1 hPa SSW 0.6 km/h 5.6 km/h 95 % 0 mm
04:16 22.3 °C 21.4 °C 1010.4 hPa SSE 0.5 km/h 3.7 km/h 95 % 0 mm
04:21 22.3 °C 21.4 °C 1010.7 hPa SSW 2.3 km/h 5.6 km/h 95 % 0 mm
04:22 22.3 °C 21.4 °C 1010.7 hPa SSW 2.4 km/h 5.6 km/h 95 % 0 mm
04:27 22.3 °C 21.4 °C 1011.1 hPa SSW 1 km/h 3.7 km/h 95 % 0 mm
04:32 22.3 °C 21.4 °C 1009.4 hPa SE 0.2 km/h 3.7 km/h 95 % 0 mm
04:37 22.3 °C 21.4 °C 1011.1 hPa South 0.3 km/h 5.6 km/h 95 % 0 mm
04:42 22.3 °C 21.4 °C 1009.4 hPa SE 1 km/h 5.6 km/h 95 % 0 mm
04:47 22.3 °C 21.4 °C 1009.4 hPa SE 0.2 km/h 5.6 km/h 95 % 0 mm
04:52 22.3 °C 21.4 °C 1007.3 hPa South 1.4 km/h 5.6 km/h 95 % 0 mm
04:57 22.3 °C 21.5 °C 1006.7 hPa South 2.1 km/h 5.6 km/h 95 % 0 mm
05:02 22.3 °C 21.5 °C 1008 hPa South 2.7 km/h 7.4 km/h 95 % 0.25 mm
05:07 22.3 °C 21.7 °C 1008 hPa SE 0.6 km/h 5.6 km/h 96 % 0.25 mm
05:12 22.3 °C 21.7 °C 1006.3 hPa SW 0.5 km/h 3.7 km/h 96 % 0.25 mm
05:17 22.3 °C 21.7 °C 1005.3 hPa SSE 2.3 km/h 7.4 km/h 96 % 0.25 mm
05:22 22.3 °C 21.7 °C 1006.3 hPa SSW 1.6 km/h 6.4 km/h 96 % 0.25 mm
05:27 22.3 °C 21.7 °C 1008 hPa SSW 1.4 km/h 5.6 km/h 96 % 0.25 mm
05:32 22.3 °C 21.7 °C 1010 hPa SSW 2.1 km/h 5.6 km/h 96 % 0.25 mm
05:37 22.3 °C 21.6 °C 1007.7 hPa South 4.3 km/h 5.6 km/h 96 % 0.25 mm
05:42 22.3 °C 21.6 °C 1010 hPa SSW 0.8 km/h 1.9 km/h 96 % 0.25 mm
05:47 22.3 °C 21.6 °C 1009 hPa SSE 0.6 km/h 3.7 km/h 96 % 0.25 mm
05:52 22.3 °C 21.6 °C 1009.4 hPa SSE 0.8 km/h 9.3 km/h 96 % 0.25 mm
05:57 22.3 °C 21.6 °C 1007.3 hPa SSE 2.6 km/h 5.6 km/h 96 % 0.25 mm
06:02 22.3 °C 21.6 °C 1005.3 hPa South 2.1 km/h 2.1 km/h 96 % 0 mm
06:03 22.3 °C 21.6 °C 1005 hPa South 3.5 km/h 5.6 km/h 96 % 0 mm
06:08 22.3 °C 21.6 °C 1006 hPa South 0.3 km/h 1.6 km/h 96 % 0 mm
06:13 22.3 °C 21.6 °C 1008.7 hPa SE 3.1 km/h 6.4 km/h 96 % 0 mm
06:18 22.3 °C 21.6 °C 1009.4 hPa SSE 1.9 km/h 4.8 km/h 96 % 0 mm
06:23 22.3 °C 21.6 °C 1010 hPa SSW 2.9 km/h 7.4 km/h 96 % 0 mm
06:29 22.3 °C 21.6 °C 1009.7 hPa SSW 2.3 km/h 7.4 km/h 96 % 0 mm
06:34 22.3 °C 21.6 °C 1010 hPa SE 1.9 km/h 7.4 km/h 96 % 0 mm
06:39 22.3 °C 21.6 °C 1010.7 hPa South 0.3 km/h 9.3 km/h 96 % 0 mm
06:44 22.3 °C 21.6 °C 1009.7 hPa SSW 1.1 km/h 5.6 km/h 96 % 0 mm
06:49 22.3 °C 21.6 °C 1009.7 hPa SW 4 km/h 7.4 km/h 96 % 0 mm
06:54 22.3 °C 21.6 °C 1010.4 hPa SSW 0.3 km/h 3.7 km/h 96 % 0 mm
06:59 22.3 °C 21.6 °C 1010 hPa SSW 3.5 km/h 5.6 km/h 96 % 0 mm
07:04 22.3 °C 21.6 °C 1010.4 hPa SE 1.1 km/h 3.7 km/h 96 % 0 mm
07:09 22.3 °C 21.6 °C 1009 hPa WSW 3.2 km/h 5.6 km/h 96 % 0 mm
07:14 22.3 °C 21.6 °C 1009.7 hPa SSE 0.5 km/h 3.7 km/h 96 % 0 mm
07:19 22.3 °C 21.7 °C 1009.7 hPa SSE 6.8 km/h 11.3 km/h 96 % 0 mm
07:24 22.3 °C 21.7 °C 1010.4 hPa SSW 9.8 km/h 9.8 km/h 96 % 0 mm
07:30 22.3 °C 21.7 °C 1011.4 hPa SSW 2.9 km/h 5.6 km/h 96 % 0 mm
07:35 22.4 °C 21.7 °C 1009 hPa SSE 1.6 km/h 5.6 km/h 96 % 0 mm
07:39 22.4 °C 21.8 °C 1007.7 hPa SSE 0.3 km/h 5.6 km/h 96 % 0 mm
07:45 22.4 °C 21.8 °C 1008 hPa South 1 km/h 1.9 km/h 96 % 0 mm
07:50 22.5 °C 21.8 °C 1010 hPa SSW 2.1 km/h 9.3 km/h 96 % 0 mm
07:55 22.5 °C 21.8 °C 1009.7 hPa South 3.2 km/h 7.4 km/h 96 % 0 mm
08:00 22.6 °C 21.9 °C 1002.9 hPa SSW 3.5 km/h 9.3 km/h 96 % 0 mm
08:05 22.6 °C 21.9 °C 1010.4 hPa SW 2.4 km/h 5.6 km/h 96 % 0 mm
08:10 22.6 °C 21.9 °C 1008 hPa WSW 0.3 km/h 3.7 km/h 96 % 0 mm
08:15 22.6 °C 21.9 °C 1009.4 hPa SSW 4.5 km/h 11.1 km/h 96 % 0 mm
08:20 22.7 °C 22 °C 1005 hPa SW 3.2 km/h 5.6 km/h 96 % 0 mm
08:25 22.7 °C 22.1 °C 1010 hPa SSE 5 km/h 9.7 km/h 96 % 0 mm
08:30 22.8 °C 22.1 °C 1010.4 hPa SSW 3.4 km/h 16.7 km/h 96 % 0 mm
08:35 22.8 °C 22.2 °C 1006.3 hPa SE 0.5 km/h 3.7 km/h 96 % 0 mm
08:40 22.8 °C 22.2 °C 1007.7 hPa WSW 0.5 km/h 1.9 km/h 96 % 0 mm
08:45 22.9 °C 22.2 °C 1011.4 hPa SSW 1.6 km/h 8 km/h 96 % 0 mm
08:50 22.9 °C 22.3 °C 1006 hPa SSW 3.1 km/h 7.4 km/h 96 % 0 mm
08:55 23 °C 22.3 °C 1008 hPa SE 6.4 km/h 14.5 km/h 96 % 0 mm
09:00 23 °C 22.3 °C 1010 hPa SW 4.5 km/h 11.1 km/h 96 % 0 mm
09:05 23.1 °C 22.4 °C 1007.3 hPa SW 8.2 km/h 13 km/h 96 % 0 mm
09:10 23.1 °C 22.4 °C 1012.1 hPa SSW 3.2 km/h 9.3 km/h 96 % 0 mm
09:15 23.1 °C 22.4 °C 1011.4 hPa SW 2.3 km/h 7.4 km/h 96 % 0 mm
09:20 23.1 °C 22.4 °C 1010 hPa SSE 1.1 km/h 5.6 km/h 96 % 0 mm
09:25 23.2 °C 22.5 °C 1007.3 hPa WSW 2.1 km/h 5.6 km/h 96 % 0 mm
09:30 23.2 °C 22.6 °C 1006.7 hPa SSW 3.9 km/h 11.1 km/h 96 % 0 mm
09:35 23.2 °C 22.6 °C 1003.3 hPa South 1.3 km/h 1.9 km/h 96 % 0 mm
09:40 23.3 °C 22.6 °C 1002.9 hPa SSW 5.3 km/h 6.4 km/h 96 % 0 mm
09:46 23.3 °C 22.4 °C 1006.7 hPa South 3.2 km/h 20.9 km/h 95 % 0 mm
09:51 23.3 °C 22.5 °C 1001.9 hPa South 4.8 km/h 14.5 km/h 95 % 0 mm
09:56 23.4 °C 22.6 °C 1007.3 hPa South 1.6 km/h 19.3 km/h 95 % 0 mm
10:01 23.4 °C 22.6 °C 1004.6 hPa SSW 0.6 km/h 5.6 km/h 95 % 0 mm
10:06 23.4 °C 22.4 °C 1006.7 hPa South 0.8 km/h 5.6 km/h 94 % 0 mm
10:11 23.4 °C 22.4 °C 1004.6 hPa SSW 1.9 km/h 9.3 km/h 94 % 0 mm
10:16 23.5 °C 22.5 °C 1005 hPa South 1.6 km/h 8 km/h 94 % 0 mm
10:21 23.5 °C 22.5 °C 1005 hPa South 3.2 km/h 14.5 km/h 94 % 0 mm
10:26 23.5 °C 22.5 °C 1003.3 hPa SSE 1.6 km/h 12.9 km/h 94 % 0 mm
10:31 23.5 °C 22.5 °C 1005 hPa South 8 km/h 19.3 km/h 94 % 0 mm
10:36 23.6 °C 22.3 °C 1006.7 hPa South 11.3 km/h 22.5 km/h 93 % 0 mm
10:41 23.6 °C 22.6 °C 1012.8 hPa South 3.2 km/h 12.9 km/h 94 % 0 mm
10:46 23.6 °C 22.4 °C 1011.7 hPa South 1.6 km/h 8 km/h 93 % 0 mm
10:51 23.6 °C 22.4 °C 1011.1 hPa South 1.6 km/h 8 km/h 93 % 0 mm
10:56 23.7 °C 22.4 °C 1012.4 hPa South 4.8 km/h 32.2 km/h 93 % 0 mm
11:01 23.7 °C 22.4 °C 1010.7 hPa South 5 km/h 9.3 km/h 93 % 0 mm
11:06 23.7 °C 22.5 °C 1012.1 hPa South 5 km/h 16.7 km/h 93 % 0 mm
11:11 23.7 °C 22.5 °C 1012.1 hPa SE 3.2 km/h 14.8 km/h 93 % 0 mm
11:16 23.7 °C 22.4 °C 1012.4 hPa SSW 3.7 km/h 11.1 km/h 93 % 0 mm
11:21 23.7 °C 22.7 °C 1011.7 hPa SE 1.9 km/h 14.5 km/h 94 % 0.25 mm
11:26 23.6 °C 22.6 °C 1011.1 hPa SSE 12.7 km/h 18.5 km/h 94 % 0.25 mm
11:31 23.6 °C 22.6 °C 1011.7 hPa SSE 3.5 km/h 13 km/h 94 % 0.25 mm
11:36 23.6 °C 22.6 °C 1011.1 hPa South 0.6 km/h 5.6 km/h 94 % 0.25 mm
11:41 23.4 °C 22.6 °C 1011.4 hPa SSE 6.1 km/h 14.8 km/h 95 % 0.25 mm
11:46 23.4 °C 22.6 °C 1011.4 hPa SSE 3.9 km/h 11.1 km/h 95 % 0.25 mm
11:51 23.4 °C 22.6 °C 1007 hPa SSW 1.4 km/h 5.6 km/h 95 % 0.51 mm
11:56 23.4 °C 22.6 °C 1011.4 hPa South 2.1 km/h 5.6 km/h 95 % 0.51 mm
12:01 23.4 °C 22.6 °C 1011.7 hPa SSW 1.4 km/h 5.6 km/h 95 % 0.51 mm
12:06 23.4 °C 22.6 °C 1011.1 hPa SSE 4.7 km/h 20.4 km/h 95 % 0.51 mm
12:11 23.4 °C 22.6 °C 1011.4 hPa South 4.7 km/h 11.1 km/h 95 % 0.51 mm
12:16 23.5 °C 22.8 °C 1010.7 hPa SSE 7.2 km/h 11.3 km/h 96 % 0.51 mm
12:21 23.5 °C 22.8 °C 1010.7 hPa SSW 3.9 km/h 11.1 km/h 96 % 0.25 mm
12:26 23.6 °C 22.9 °C 1010.4 hPa SSW 7.4 km/h 14.8 km/h 96 % 0.25 mm
12:31 23.6 °C 22.9 °C 1010.4 hPa SW 6.4 km/h 13 km/h 96 % 0.25 mm
12:36 23.6 °C 22.9 °C 1010.7 hPa SSW 3.5 km/h 11.1 km/h 96 % 0.25 mm
12:41 23.6 °C 22.8 °C 1010 hPa South 4.2 km/h 14.8 km/h 95 % 0.25 mm
12:46 23.6 °C 22.8 °C 1009 hPa South 3.2 km/h 14.8 km/h 95 % 0.25 mm
12:51 23.6 °C 22.8 °C 1007 hPa SSW 4.3 km/h 13 km/h 95 % 0 mm
12:56 23.6 °C 22.8 °C 1004.6 hPa South 7.7 km/h 11.1 km/h 95 % 0.25 mm
13:01 23.6 °C 22.8 °C 1005 hPa South 3.9 km/h 9.3 km/h 95 % 0.25 mm
13:06 23.6 °C 22.7 °C 1005 hPa SE 1.9 km/h 6.4 km/h 95 % 0.25 mm
13:11 23.6 °C 22.7 °C 1006.3 hPa SSW 4.8 km/h 7.4 km/h 95 % 0.25 mm
13:16 23.5 °C 22.7 °C 1003.3 hPa South 5.3 km/h 14.8 km/h 95 % 0.25 mm
13:21 23.4 °C 22.6 °C 1004.3 hPa SW 7.2 km/h 12.9 km/h 95 % 0.51 mm
13:26 23.4 °C 22.6 °C 999.5 hPa SW 2.3 km/h 5.6 km/h 95 % 0.51 mm
13:31 23.4 °C 22.6 °C 1002.6 hPa South 6.6 km/h 9.3 km/h 95 % 0.51 mm
13:36 23.4 °C 22.6 °C 1001.2 hPa South 3.7 km/h 11.1 km/h 95 % 0.51 mm
13:41 23.4 °C 22.6 °C 1005 hPa South 6 km/h 11.1 km/h 95 % 0.51 mm
13:46 23.3 °C 22.5 °C 1005.3 hPa South 11.1 km/h 17.7 km/h 95 % 0.76 mm
13:49 23.3 °C 22.5 °C 1003.6 hPa South 6.3 km/h 11.1 km/h 95 % 0.76 mm
13:54 23.3 °C 22.4 °C 1006.7 hPa SSW 2.7 km/h 9.3 km/h 95 % 0.76 mm
13:59 23.3 °C 22.6 °C 1006.7 hPa South 6.6 km/h 25.9 km/h 96 % 0.51 mm
14:04 23.3 °C 22.6 °C 1007 hPa South 6.9 km/h 9.3 km/h 96 % 0.76 mm
14:09 23.2 °C 22.6 °C 1006.3 hPa SSW 5.5 km/h 13 km/h 96 % 1.02 mm
14:14 23.2 °C 22.5 °C 1003.6 hPa SSW 5.6 km/h 13 km/h 96 % 1.27 mm
14:19 23.1 °C 22.4 °C 1005 hPa SE 8.2 km/h 14.8 km/h 96 % 1.78 mm
14:24 23 °C 22.3 °C 1006.3 hPa South 8.2 km/h 19.3 km/h 96 % 1.78 mm
14:29 22.8 °C 22 °C 1006.7 hPa SW 8.2 km/h 16.7 km/h 95 % 2.29 mm
14:35 22.8 °C 21.9 °C 1005 hPa South 7.9 km/h 20.9 km/h 95 % 2.54 mm
14:40 22.7 °C 21.8 °C 1005 hPa SSW 8.5 km/h 18.5 km/h 95 % 2.79 mm
14:45 22.6 °C 21.8 °C 1006 hPa South 5 km/h 14.8 km/h 95 % 3.05 mm
14:50 22.6 °C 21.9 °C 1000.2 hPa SW 5.6 km/h 16.7 km/h 96 % 3.3 mm
14:51 22.6 °C 21.9 °C 1002.6 hPa SSW 7.4 km/h 18.5 km/h 96 % 3.3 mm
14:56 22.6 °C 21.9 °C 1005.6 hPa South 10 km/h 18.5 km/h 96 % 3.56 mm
15:01 22.5 °C 21.8 °C 1005.3 hPa South 9.5 km/h 25.9 km/h 96 % 3.81 mm
15:06 22.4 °C 21.8 °C 1000.6 hPa SW 8.5 km/h 20.4 km/h 96 % 3.81 mm
15:11 22.4 °C 21.7 °C 1005 hPa SSE 5.8 km/h 11.1 km/h 96 % 3.81 mm
15:16 22.3 °C 21.7 °C 1005.6 hPa SW 4.8 km/h 13 km/h 96 % 3.3 mm
15:21 22.3 °C 21.7 °C 1002.9 hPa SSW 6 km/h 8 km/h 96 % 3.3 mm
15:26 22.3 °C 21.7 °C 1004.6 hPa WSW 3.2 km/h 12.9 km/h 96 % 2.79 mm
15:31 22.3 °C 21.7 °C 1002.9 hPa SSW 8.5 km/h 18.5 km/h 96 % 2.54 mm
15:36 22.4 °C 21.7 °C 1005.3 hPa SSE 7.6 km/h 18.5 km/h 96 % 2.29 mm
15:41 22.4 °C 21.9 °C 1000.9 hPa SW 7.1 km/h 11.1 km/h 97 % 1.78 mm
15:46 22.5 °C 22 °C 1003.9 hPa SSW 9.3 km/h 18.5 km/h 97 % 1.52 mm
15:51 22.5 °C 22 °C 1000.9 hPa SSW 9.8 km/h 14.8 km/h 97 % 1.27 mm
16:01 22.6 °C 22.1 °C 1005.6 hPa SE 7.7 km/h 18.5 km/h 97 % 0.76 mm
16:06 22.6 °C 22.1 °C 1005 hPa SSW 9.2 km/h 18.5 km/h 97 % 0.51 mm
16:11 22.6 °C 22.1 °C 1004.6 hPa SSW 8.4 km/h 13 km/h 97 % 0.25 mm
16:16 22.6 °C 22.1 °C 1006 hPa SSE 8.5 km/h 18.5 km/h 97 % 0.51 mm
16:21 22.5 °C 22 °C 1006 hPa South 6.1 km/h 16.1 km/h 97 % 0.25 mm
16:26 22.5 °C 22 °C 1006.3 hPa South 7.2 km/h 14.8 km/h 97 % 0.25 mm
16:31 22.5 °C 22 °C 1005.3 hPa SSW 4.3 km/h 8 km/h 97 % 0.25 mm
16:36 22.5 °C 22 °C 1003.3 hPa SSW 4 km/h 11.3 km/h 97 % 0.25 mm
16:41 22.5 °C 22 °C 1005 hPa South 2.6 km/h 5.6 km/h 97 % 0.25 mm
16:46 22.5 °C 22 °C 1007.3 hPa SSW 5.8 km/h 18.5 km/h 97 % 0.25 mm
16:51 22.5 °C 22 °C 1007 hPa South 4.8 km/h 11.1 km/h 97 % 0.25 mm
16:56 22.5 °C 22 °C 1007.3 hPa SSW 7.1 km/h 11.1 km/h 97 % 0.25 mm
17:01 22.5 °C 22 °C 1007 hPa SSW 1.8 km/h 11.1 km/h 97 % 0.25 mm
17:06 22.5 °C 22 °C 1006.7 hPa SSW 7.2 km/h 27.8 km/h 97 % 0.25 mm
17:11 22.5 °C 22 °C 1004.6 hPa SSW 1.9 km/h 11.1 km/h 97 % 0.25 mm
17:17 22.6 °C 22.1 °C 1007.3 hPa SSW 7.9 km/h 18.5 km/h 97 % 0 mm
17:22 22.6 °C 22.1 °C 1006.7 hPa South 3.5 km/h 20.4 km/h 97 % 0 mm
17:27 22.6 °C 22.1 °C 1006.3 hPa SSW 6.1 km/h 11.1 km/h 97 % 0 mm
17:32 22.6 °C 22.1 °C 1002.9 hPa SSW 7.7 km/h 11.1 km/h 97 % 0 mm
17:37 22.6 °C 22.1 °C 1004.3 hPa SSW 3.7 km/h 13 km/h 97 % 0 mm
17:42 22.6 °C 22.1 °C 1000.6 hPa SSE 3.1 km/h 11.1 km/h 97 % 0 mm
17:47 22.6 °C 22.1 °C 1003.3 hPa SSW 6 km/h 8 km/h 97 % 0 mm
17:52 22.6 °C 22.1 °C 1001.9 hPa SSE 4 km/h 8 km/h 97 % 0 mm
17:57 22.6 °C 22.1 °C 1002.3 hPa SSW 8.5 km/h 13 km/h 97 % 0 mm
18:02 22.6 °C 22.1 °C 1007 hPa SSW 8.7 km/h 16.7 km/h 97 % 0 mm
18:07 22.6 °C 22.1 °C 1005.3 hPa SSW 2.4 km/h 6.4 km/h 97 % 0 mm
18:12 22.6 °C 22.1 °C 1006 hPa SSW 4.2 km/h 9.3 km/h 97 % 0 mm
18:17 22.6 °C 22.1 °C 1003.9 hPa South 8.9 km/h 12.9 km/h 97 % 0 mm
18:27 22.6 °C 22.1 °C 1008 hPa South 1.8 km/h 5.6 km/h 97 % 0 mm
18:32 22.6 °C 22.1 °C 1003.9 hPa South 4.7 km/h 13 km/h 97 % 0 mm
18:37 22.6 °C 22.1 °C 1005 hPa South 5.3 km/h 9.3 km/h 97 % 0 mm
18:42 22.6 °C 22.1 °C 1005.3 hPa SSW 2.4 km/h 3.7 km/h 97 % 0 mm
18:48 22.6 °C 22.1 °C 1005.6 hPa SSW 1.1 km/h 5.6 km/h 97 % 0 mm
18:53 22.6 °C 22.1 °C 1006.7 hPa South 1.9 km/h 9.3 km/h 97 % 0 mm
18:57 22.7 °C 22.2 °C 1006 hPa SSE 1.8 km/h 11.1 km/h 97 % 0 mm
19:03 22.7 °C 22.2 °C 1006.3 hPa SSW 4.3 km/h 8 km/h 97 % 0 mm
19:08 22.7 °C 22.2 °C 1003.6 hPa SE 4 km/h 7.4 km/h 97 % 0 mm
19:12 22.7 °C 22.2 °C 1005.3 hPa South 4.2 km/h 7.4 km/h 97 % 0 mm
19:18 22.7 °C 22.2 °C 1005.6 hPa SSE 2.9 km/h 5.6 km/h 97 % 0 mm
19:23 22.6 °C 22.1 °C 1006.3 hPa SSW 3.4 km/h 9.3 km/h 97 % 0 mm
19:28 22.6 °C 22.1 °C 1003.6 hPa South 3.4 km/h 9.3 km/h 97 % 0 mm
19:33 22.6 °C 22.1 °C 1006.7 hPa SSW 4.5 km/h 9.7 km/h 97 % 0 mm
19:38 22.6 °C 22.1 °C 1005 hPa South 3.7 km/h 11.1 km/h 97 % 0 mm
19:43 22.6 °C 22.1 °C 1005.6 hPa South 3.1 km/h 9.3 km/h 97 % 0 mm
19:48 22.7 °C 22.2 °C 1007.3 hPa SSW 2.4 km/h 7.4 km/h 97 % 0 mm
19:53 22.7 °C 22.2 °C 1006.7 hPa WSW 4.3 km/h 9.3 km/h 97 % 0 mm
19:58 22.7 °C 22.2 °C 1005.6 hPa SSW 2.3 km/h 11.1 km/h 97 % 0 mm
20:03 22.7 °C 22.2 °C 1004.3 hPa South 5.5 km/h 11.1 km/h 97 % 0 mm
20:13 22.7 °C 22.2 °C 1003.3 hPa SW 1.8 km/h 4.8 km/h 97 % 0 mm
20:18 22.7 °C 22.2 °C 1005.3 hPa SW 3.5 km/h 8 km/h 97 % 0 mm
20:23 22.8 °C 22.3 °C 1000.9 hPa SSW 1.4 km/h 5.6 km/h 97 % 0 mm
20:28 22.8 °C 22.3 °C 1007.3 hPa SSE 1.6 km/h 4.8 km/h 97 % 0 mm
20:33 22.8 °C 22.3 °C 1008 hPa South 3.5 km/h 7.4 km/h 97 % 0 mm
20:38 22.8 °C 22.3 °C 1007.3 hPa SSW 2.9 km/h 6.4 km/h 97 % 0 mm
20:43 22.9 °C 22.4 °C 1008.4 hPa SSW 6 km/h 11.1 km/h 97 % 0 mm
20:48 22.9 °C 22.4 °C 1008.4 hPa SW 1.8 km/h 6.4 km/h 97 % 0 mm
20:53 22.9 °C 22.4 °C 1008.4 hPa South 5.3 km/h 7.4 km/h 97 % 0 mm
20:58 22.9 °C 22.4 °C 1008.7 hPa SSW 2.1 km/h 5.6 km/h 97 % 0 mm
21:03 22.9 °C 22.4 °C 1004.3 hPa SSW 3.9 km/h 7.4 km/h 97 % 0 mm
21:08 22.9 °C 22.4 °C 1005 hPa SSW 5.5 km/h 9.3 km/h 97 % 0 mm
21:13 23 °C 22.5 °C 1000.6 hPa West 2.6 km/h 5.6 km/h 97 % 0 mm
21:18 23 °C 22.5 °C 1003.6 hPa WSW 1.1 km/h 5.6 km/h 97 % 0 mm
21:23 23 °C 22.5 °C 1003.9 hPa SSW 1.9 km/h 3.7 km/h 97 % 0 mm
21:28 23.1 °C 22.6 °C 1007 hPa South 1.1 km/h 3.7 km/h 97 % 0 mm
21:33 23 °C 22.5 °C 1004.6 hPa SSW 5.1 km/h 8 km/h 97 % 0 mm
21:38 23.1 °C 22.6 °C 1005 hPa SSW 4 km/h 4 km/h 97 % 0 mm
21:44 23.1 °C 22.6 °C 1004.6 hPa SW 1.4 km/h 7.4 km/h 97 % 0 mm
21:49 23.1 °C 22.6 °C 1005 hPa SSW 2.1 km/h 5.6 km/h 97 % 0 mm
21:54 23.1 °C 22.6 °C 1007 hPa WSW 1.1 km/h 3.7 km/h 97 % 0 mm
21:59 23.1 °C 22.6 °C 1004.3 hPa South 2.1 km/h 7.4 km/h 97 % 0 mm
22:11 23.1 °C 22.6 °C 1007.3 hPa SSW 4.7 km/h 6.4 km/h 97 % 0 mm
22:16 23.1 °C 22.6 °C 1004.6 hPa SW 5.5 km/h 7.4 km/h 97 % 0 mm
22:26 23.1 °C 22.6 °C 1006 hPa South 2.3 km/h 6.4 km/h 97 % 0 mm
22:31 23.1 °C 22.6 °C 1006.3 hPa SSW 4.2 km/h 7.4 km/h 97 % 0 mm
22:36 23.1 °C 22.6 °C 1004.3 hPa SW 5 km/h 13 km/h 97 % 0 mm
22:41 23 °C 22.5 °C 1005 hPa SW 6.3 km/h 9.3 km/h 97 % 0 mm
22:46 23 °C 22.5 °C 1005.6 hPa SW 2.3 km/h 9.7 km/h 97 % 0 mm
22:56 23 °C 22.5 °C 1005.6 hPa SSW 2.6 km/h 5.6 km/h 97 % 0 mm
23:01 22.9 °C 22.4 °C 1002.6 hPa WSW 0.5 km/h 1.9 km/h 97 % 0 mm
23:06 22.9 °C 22.4 °C 1006.3 hPa SSW 0.5 km/h 3.7 km/h 97 % 0 mm
23:07 22.9 °C 22.4 °C 1001.2 hPa SSW 2.3 km/h 8 km/h 97 % 0 mm
23:12 22.9 °C 22.4 °C 1006.7 hPa SW 1.4 km/h 3.7 km/h 97 % 0 mm
23:17 22.9 °C 22.4 °C 1003.6 hPa SSW 2.4 km/h 5.6 km/h 97 % 0 mm
23:19 22.9 °C 22.4 °C 1002.3 hPa WSW 4 km/h 9.3 km/h 97 % 0 mm
23:21 22.9 °C 22.4 °C 1002.9 hPa WSW 2.9 km/h 5.6 km/h 97 % 0 mm
23:31 22.9 °C 22.4 °C 1005.3 hPa WSW 0.3 km/h 3.7 km/h 97 % 0 mm
23:36 22.9 °C 22.4 °C 1008 hPa SW 2.1 km/h 3.7 km/h 97 % 0 mm
23:41 23 °C 22.5 °C 1007 hPa SW 6.1 km/h 13 km/h 97 % 0 mm
23:47 23 °C 22.5 °C 1007.3 hPa SW 3.5 km/h 11.1 km/h 97 % 0 mm
23:51 23.1 °C 22.6 °C 1002.9 hPa SW 5.1 km/h 7.4 km/h 97 % 0 mm
23:57 23.1 °C 22.6 °C 1007 hPa SSW 4.3 km/h 11.1 km/h 97 % 0 mm
Crab Meadow Weather
Compliments of Weather Underground - 3 mb

Script developed by  Jim McMurry - jmcmurry@mwt.net Adapted for the template by  Wim van der Kuil - Leuven-Template.eu

Recycling: A used aluminum can is recycled and back on the grocery shelf as a new can, in as little as 60 days.